Hourly Weather Rudnychne

Today, 22 April, Thursday

Time Temperature Precipitation Wind Pressure Humidity
00:00 +7°C° 0 mm 2 mps 750 mmHg 79%
01:00 +7°C° 0 mm 2 mps 751 mmHg 81%
02:00 +7°C° 0 mm 2 mps 751 mmHg 84%
03:00 +6°C° 0 mm 2 mps 751 mmHg 85%
04:00 +6°C° 0 mm 2 mps 751 mmHg 87%
05:00 +6°C° 0 mm 2 mps 751 mmHg 88%
06:00 +8°C° 0 mm 3 mps 752 mmHg 81%
07:00 +10°C° 0 mm 3 mps 752 mmHg 73%
08:00 +12°C° 0 mm 3 mps 752 mmHg 66%
09:00 +13°C° 0.1 mm 3 mps 752 mmHg 59%
10:00 +14°C° 0.1 mm 4 mps 752 mmHg 52%
11:00 +17°C° 0.1 mm 4 mps 752 mmHg 45%
12:00 +17°C° 0.1 mm 3 mps 752 mmHg 46%
13:00 +16°C° 0.1 mm 3 mps 752 mmHg 48%
14:00 +16°C° 0.1 mm 3 mps 752 mmHg 49%
15:00 +16°C° 0.1 mm 3 mps 752 mmHg 51%
16:00 +16°C° 0.1 mm 3 mps 752 mmHg 52%
17:00 +16°C° 0.1 mm 3 mps 752 mmHg 53%
18:00 +13°C° 0 mm 3 mps 752 mmHg 58%
19:00 +12°C° 0 mm 3 mps 752 mmHg 64%
20:00 +11°C° 0 mm 3 mps 752 mmHg 69%
21:00 +10°C° 0 mm 3 mps 752 mmHg 73%
22:00 +9°C° 0 mm 3 mps 752 mmHg 77%
23:00 +9°C° 0 mm 3 mps 752 mmHg 81%

Tomorrow, 23 April, Friday

Time Temperature Precipitation Wind Pressure Humidity
00:00 +7°C° 0 mm 4 mps 752 mmHg 83%
01:00 +7°C° 0 mm 4 mps 751 mmHg 85%
02:00 +6°C° 0 mm 4 mps 751 mmHg 87%
03:00 +6°C° 0 mm 4 mps 751 mmHg 89%
04:00 +6°C° 0 mm 4 mps 751 mmHg 90%
05:00 +6°C° 0 mm 4 mps 751 mmHg 91%
06:00 +8°C° 0 mm 5 mps 751 mmHg 84%
07:00 +9°C° 0 mm 6 mps 751 mmHg 76%
08:00 +11°C° 0 mm 7 mps 751 mmHg 69%
09:00 +12°C° 0.1 mm 7 mps 750 mmHg 65%
10:00 +15°C° 0.1 mm 8 mps 750 mmHg 61%
11:00 +16°C° 0.1 mm 8 mps 750 mmHg 57%
12:00 +15°C° 0.8 mm 8 mps 749 mmHg 59%
13:00 +15°C° 0.8 mm 8 mps 749 mmHg 62%
14:00 +14°C° 0.8 mm 7 mps 749 mmHg 65%
15:00 +12°C° 1.7 mm 7 mps 749 mmHg 73%
16:00 +10°C° 1.7 mm 6 mps 749 mmHg 80%
17:00 +8°C° 1.7 mm 6 mps 749 mmHg 88%
18:00 +7°C° 0.6 mm 5 mps 750 mmHg 87%
19:00 +7°C° 0.6 mm 4 mps 750 mmHg 87%
20:00 +7°C° 0.6 mm 3 mps 750 mmHg 86%
21:00 +7°C° 0.3 mm 3 mps 750 mmHg 86%
22:00 +5°C° 0.3 mm 3 mps 750 mmHg 87%
23:00 +6°C° 0.3 mm 2 mps 750 mmHg 87%

Day after tomorrow, 24 April, Saturday

Time Temperature Precipitation Wind Pressure Humidity
00:00 +6°C° 0 mm 2 mps 750 mmHg 89%
01:00 +5°C° 0 mm 2 mps 750 mmHg 91%
02:00 +3°C° 0 mm 3 mps 750 mmHg 93%
03:00 +3°C° 0 mm 3 mps 750 mmHg 92%
04:00 +3°C° 0 mm 3 mps 750 mmHg 92%
05:00 +2°C° 0 mm 3 mps 750 mmHg 91%
06:00 +4°C° 0 mm 3 mps 750 mmHg 80%
07:00 +7°C° 0 mm 3 mps 751 mmHg 69%
08:00 +7°C° 0 mm 4 mps 751 mmHg 58%
09:00 +8°C° 0 mm 5 mps 751 mmHg 52%
10:00 +9°C° 0 mm 6 mps 750 mmHg 47%
11:00 +11°C° 0 mm 8 mps 750 mmHg 41%
12:00 +10°C° 0.1 mm 8 mps 750 mmHg 45%
13:00 +8°C° 0.1 mm 9 mps 751 mmHg 48%
14:00 +8°C° 0.1 mm 10 mps 751 mmHg 51%
15:00 +7°C° 0 mm 9 mps 751 mmHg 49%
16:00 +8°C° 0 mm 7 mps 751 mmHg 46%
17:00 +8°C° 0 mm 6 mps 751 mmHg 43%
18:00 +6°C° 0 mm 5 mps 752 mmHg 47%
19:00 +5°C° 0 mm 4 mps 752 mmHg 50%
20:00 +4°C° 0 mm 3 mps 753 mmHg 54%
21:00 +3°C° 0 mm 3 mps 753 mmHg 57%
22:00 +3°C° 0 mm 3 mps 753 mmHg 60%
23:00 +2°C° 0 mm 3 mps 753 mmHg 63%

25 April, Sunday

Time Temperature Precipitation Wind Pressure Humidity
00:00 +2°C° 0 mm 3 mps 753 mmHg 64%
01:00 +1°C° 0 mm 3 mps 753 mmHg 65%
02:00 +1°C° 0 mm 3 mps 753 mmHg 66%
03:00 +2°C° 0 mm 2 mps 753 mmHg 66%
04:00 +2°C° 0 mm 2 mps 753 mmHg 66%
05:00 +1°C° 0 mm 2 mps 753 mmHg 66%
06:00 +3°C° 0 mm 2 mps 753 mmHg 61%
07:00 +4°C° 0 mm 3 mps 754 mmHg 55%
08:00 +7°C° 0 mm 3 mps 754 mmHg 49%
09:00 +8°C° 0 mm 3 mps 753 mmHg 44%
10:00 +10°C° 0 mm 3 mps 753 mmHg 39%
11:00 +11°C° 0 mm 3 mps 753 mmHg 34%
12:00 +11°C° 0 mm 3 mps 753 mmHg 34%
13:00 +12°C° 0 mm 3 mps 752 mmHg 33%
14:00 +13°C° 0 mm 3 mps 752 mmHg 33%
15:00 +13°C° 0 mm 3 mps 752 mmHg 34%
16:00 +13°C° 0 mm 3 mps 751 mmHg 35%
17:00 +13°C° 0 mm 3 mps 751 mmHg 36%
18:00 +11°C° 0 mm 3 mps 751 mmHg 42%
19:00 +10°C° 0 mm 3 mps 751 mmHg 48%
20:00 +8°C° 0 mm 3 mps 751 mmHg 54%
21:00 +8°C° 0 mm 3 mps 751 mmHg 57%
22:00 +7°C° 0 mm 3 mps 751 mmHg 60%
23:00 +7°C° 0 mm 3 mps 751 mmHg 63%

26 April, Monday

Time Temperature Precipitation Wind Pressure Humidity
00:00 +7°C° 0 mm 3 mps 751 mmHg 64%
01:00 +7°C° 0 mm 3 mps 751 mmHg 66%
02:00 +5°C° 0 mm 3 mps 750 mmHg 67%
03:00 +5°C° 0.2 mm 3 mps 750 mmHg 73%
04:00 +5°C° 0.2 mm 3 mps 750 mmHg 80%
05:00 +5°C° 0.2 mm 3 mps 750 mmHg 86%
06:00 +5°C° 0.7 mm 3 mps 750 mmHg 87%
07:00 +5°C° 0.7 mm 3 mps 750 mmHg 87%
08:00 +4°C° 0.7 mm 4 mps 750 mmHg 88%
09:00 +5°C° 0.1 mm 3 mps 750 mmHg 80%
10:00 +7°C° 0.1 mm 3 mps 750 mmHg 72%
11:00 +8°C° 0.1 mm 3 mps 750 mmHg 63%
12:00 +9°C° 0 mm 3 mps 750 mmHg 55%
13:00 +10°C° 0 mm 4 mps 750 mmHg 46%
14:00 +10°C° 0 mm 5 mps 749 mmHg 38%
15:00 +10°C° 0 mm 5 mps 749 mmHg 39%
16:00 +10°C° 0 mm 5 mps 749 mmHg 41%
17:00 +10°C° 0 mm 5 mps 749 mmHg 42%
18:00 +8°C° 0 mm 4 mps 749 mmHg 48%
19:00 +8°C° 0 mm 3 mps 749 mmHg 53%
20:00 +5°C° 0 mm 3 mps 750 mmHg 59%
21:00 +5°C° 0 mm 3 mps 750 mmHg 61%
22:00 +5°C° 0 mm 2 mps 750 mmHg 62%
23:00 +4°C° 0 mm 2 mps 750 mmHg 64%

27 April, Tuesday

Time Temperature Precipitation Wind Pressure Humidity
00:00 +4°C° 0 mm 2 mps 750 mmHg 63%
01:00 +4°C° 0 mm 2 mps 750 mmHg 62%
02:00 +4°C° 0 mm 2 mps 750 mmHg 61%
03:00 +4°C° 0 mm 2 mps 750 mmHg 62%
04:00 +4°C° 0 mm 2 mps 750 mmHg 63%
05:00 +4°C° 0 mm 2 mps 751 mmHg 64%
06:00 +5°C° 0 mm 2 mps 751 mmHg 60%
07:00 +6°C° 0 mm 2 mps 751 mmHg 55%
08:00 +8°C° 0 mm 2 mps 751 mmHg 51%
09:00 +9°C° 0 mm 2 mps 751 mmHg 48%
10:00 +10°C° 0 mm 3 mps 751 mmHg 44%
11:00 +11°C° 0 mm 3 mps 751 mmHg 41%
12:00 +12°C° 0 mm 3 mps 751 mmHg 39%
13:00 +13°C° 0 mm 3 mps 750 mmHg 37%
14:00 +13°C° 0 mm 3 mps 750 mmHg 35%
15:00 +13°C° 0 mm 3 mps 750 mmHg 37%
16:00 +13°C° 0 mm 3 mps 750 mmHg 39%
17:00 +13°C° 0 mm 3 mps 750 mmHg 41%
18:00 +12°C° 0 mm 3 mps 750 mmHg 50%
19:00 +10°C° 0 mm 4 mps 750 mmHg 60%
20:00 +8°C° 0 mm 4 mps 750 mmHg 69%
21:00 +7°C° 0 mm 4 mps 750 mmHg 75%
22:00 +7°C° 0 mm 3 mps 750 mmHg 81%
23:00 +7°C° 0 mm 3 mps 750 mmHg 87%
Show more